TimeAST,TemperatureF,Dew PointF,Humidity,Sea Level PressureIn,VisibilityMPH,Wind Direction,Wind SpeedMPH,Gust SpeedMPH,PrecipitationIn,Events,Conditions,WindDirDegrees,DateUTC
12:00 AM,87.8,69.8,55,29.65,-9999.0,North,5.8,-,N/A,,Clear,360,2013-05-27 21:00:00
12:30 AM,86.0,75.2,70,29.62,-9999.0,North,5.8,-,N/A,,Clear,10,2013-05-27 21:30:00
1:00 AM,86.0,75.2,70,29.62,-9999.0,North,4.6,-,N/A,,Clear,350,2013-05-27 22:00:00
2:00 AM,86.0,75.2,70,29.62,-9999.0,North,6.9,-,N/A,,Clear,360,2013-05-27 23:00:00
2:30 AM,86.0,77.0,74,29.62,-9999.0,NE,3.5,-,N/A,,Unknown,50,2013-05-27 23:30:00
3:00 AM,85,78,75,29.64,7,,2.3,,,,,,2013-05-28 00:00:00
3:00 AM,84.2,78.8,84,29.62,-9999.0,Variable,2.3,-,N/A,,Clear,0,2013-05-28 00:00:00
3:30 AM,84.2,75.2,74,29.62,-9999.0,North,4.6,-,N/A,,Clear,360,2013-05-28 00:30:00
4:00 AM,84.2,77.0,79,29.62,-9999.0,NNW,3.5,-,N/A,,Clear,330,2013-05-28 01:00:00
4:30 AM,84.2,77.0,79,29.65,-9999.0,North,6.9,-,N/A,,Clear,10,2013-05-28 01:30:00
5:00 AM,82.4,77.0,84,29.65,5.6,North,5.8,-,N/A,,Unknown,360,2013-05-28 02:00:00
5:30 AM,84.2,77.0,79,29.65,-9999.0,NNE,4.6,-,N/A,,Clear,20,2013-05-28 02:30:00
6:00 AM,86.0,75.2,70,29.68,-9999.0,North,5.8,-,N/A,,Clear,10,2013-05-28 03:00:00
6:30 AM,87.8,73.4,62,29.68,-9999.0,NNE,6.9,-,N/A,,Clear,20,2013-05-28 03:30:00
7:30 AM,93.2,68.0,44,29.68,-9999.0,NNE,4.6,-,N/A,,Clear,20,2013-05-28 04:30:00
8:00 AM,95.0,66.2,39,29.71,-9999.0,NE,4.6,-,N/A,,Clear,40,2013-05-28 05:00:00
8:30 AM,96.8,60.8,30,29.71,-9999.0,ENE,5.8,-,N/A,,Clear,60,2013-05-28 05:30:00
9:00 AM,99,54,14,29.73,9,ESE,6.9,,,,,120,2013-05-28 06:00:00
9:00 AM,98.6,55.4,24,29.71,-9999.0,ESE,6.9,-,N/A,,Clear,120,2013-05-28 06:00:00
9:30 AM,98.6,53.6,22,29.71,-9999.0,ESE,9.2,-,N/A,,Clear,120,2013-05-28 06:30:00
10:00 AM,96.8,73.4,47,29.71,-9999.0,East,8.1,-,N/A,,Clear,90,2013-05-28 07:00:00
10:30 AM,98.6,59.0,27,29.71,-9999.0,East,9.2,-,N/A,,Clear,90,2013-05-28 07:30:00
11:00 AM,100.4,55.4,22,29.71,-9999.0,East,9.2,-,N/A,,Clear,90,2013-05-28 08:00:00
11:30 AM,98.6,57.2,25,29.71,-9999.0,ESE,10.4,-,N/A,,Clear,120,2013-05-28 08:30:00
12:00 PM,98.6,59.0,27,29.71,-9999.0,East,8.1,-,N/A,,Clear,90,2013-05-28 09:00:00
12:30 PM,100.4,59.0,25,29.71,-9999.0,East,9.2,-,N/A,,Clear,100,2013-05-28 09:30:00
1:00 PM,100.4,53.6,21,29.68,-9999.0,East,6.9,-,N/A,,Clear,100,2013-05-28 10:00:00
2:00 PM,102.2,50.0,17,29.65,-9999.0,East,8.1,-,N/A,,Clear,90,2013-05-28 11:00:00
2:30 PM,102.2,48.2,16,29.65,-9999.0,East,9.2,-,N/A,,Clear,90,2013-05-28 11:30:00
3:00 PM,100,58,16,29.67,9,East,9.2,,,,,80,2013-05-28 12:00:00
3:00 PM,100.4,57.2,24,29.65,-9999.0,East,9.2,-,N/A,,Clear,80,2013-05-28 12:00:00
4:00 PM,96.8,59.0,28,29.65,-9999.0,NNE,15.0,-,N/A,,Clear,20,2013-05-28 13:00:00
4:30 PM,95.0,68.0,41,29.65,-9999.0,NNE,13.8,-,N/A,,Clear,20,2013-05-28 13:30:00
5:00 PM,95.0,64.4,36,29.65,-9999.0,NNE,11.5,-,N/A,,Clear,20,2013-05-28 14:00:00
5:30 PM,93.2,64.4,38,29.65,-9999.0,NNE,10.4,-,N/A,,Clear,20,2013-05-28 14:30:00
6:00 PM,93.2,62.6,36,29.65,-9999.0,NNE,8.1,-,N/A,,Clear,20,2013-05-28 15:00:00
7:00 PM,91.4,66.2,43,29.68,-9999.0,NNE,4.6,-,N/A,,Clear,20,2013-05-28 16:00:00
8:00 PM,89.6,68.0,49,29.68,-9999.0,Variable,2.3,-,N/A,,Clear,0,2013-05-28 17:00:00
9:00 PM,89,67,38,29.70,7,North,3.5,,,,,0,2013-05-28 18:00:00
9:00 PM,89.6,66.2,46,29.68,-9999.0,North,3.5,-,N/A,,Clear,360,2013-05-28 18:00:00
9:30 PM,89.6,68.0,49,29.68,-9999.0,North,4.6,-,N/A,,Clear,10,2013-05-28 18:30:00
10:00 PM,87.8,69.8,55,29.68,-9999.0,North,2.3,-,N/A,,Clear,360,2013-05-28 19:00:00
10:30 PM,87.8,69.8,55,29.68,-9999.0,Variable,2.3,-,N/A,,Clear,0,2013-05-28 19:30:00
11:00 PM,87.8,68.0,52,29.68,-9999.0,North,1.2,-,N/A,,Clear,360,2013-05-28 20:00:00
11:30 PM,87.8,68.0,52,29.68,-9999.0,North,3.5,-,N/A,,Clear,10,2013-05-28 20:30:00